GFSFLT2_prec_precacc12_102.txt.gz
Total_Precipitation_Accumulation
0.00 0.00 0.00 0.00 0.00 0.00 0.00 0.00 0.00 0.00 0.00 0.00 0.00 0.00 0.00 0.00 0.00 0.04 0.06 0.04 0.02 0.01 0.04 0.03 0.08 0.25 0.27 0.32 0.11 0.05 0.03 0.07
0.00 0.00 0.00 0.00 0.00 0.00 0.00 0.00 0.00 0.00 0.00 0.00 0.00 0.00 0.00 0.00 0.00 0.01 0.05 0.03 0.00 0.05 0.05 0.12 0.19 0.30 0.41 0.34 0.26 0.22 0.23 0.19
0.00 0.00 0.00 0.00 0.00 0.00 0.00 0.00 0.00 0.00 0.00 0.00 0.00 0.00 0.00 0.00 0.00 0.00 0.05 0.03 0.02 0.08 0.07 0.12 0.54 0.39 0.60 0.47 0.40 0.35 0.34 0.35
0.00 0.00 0.00 0.00 0.00 0.00 0.00 0.00 0.00 0.00 0.00 0.00 0.00 0.00 0.00 0.00 0.00 0.01 0.05 0.05 0.03 0.21 0.16 0.07 0.41 0.36 0.51 0.52 0.36 0.36 0.34 0.25
0.00 0.00 0.00 0.00 0.00 0.00 0.00 0.00 0.00 0.00 0.00 0.00 0.00 0.00 0.00 0.00 0.00 0.00 0.01 0.05 0.02 0.04 0.07 0.08 0.14 0.21 0.40 0.43 0.32 0.28 0.29 0.27
0.01 0.00 0.00 0.00 0.00 0.00 0.00 0.00 0.00 0.00 0.00 0.00 0.00 0.00 0.00 0.00 0.00 0.00 0.01 0.01 0.01 0.02 0.05 0.05 0.07 0.15 0.33 0.46 0.34 0.23 0.22 0.29
0.00 0.01 0.01 0.00 0.00 0.00 0.00 0.00 0.00 0.00 0.00 0.00 0.00 0.00 0.00 0.00 0.00 0.00 0.00 0.00 0.00 0.02 0.03 0.02 0.07 0.17 0.32 0.42 0.40 0.28 0.27 0.23
0.00 0.01 0.02 0.04 0.01 0.00 0.00 0.00 0.00 0.00 0.00 0.00 0.00 0.00 0.00 0.00 0.01 0.01 0.00 0.00 0.00 0.01 0.02 0.02 0.05 0.17 0.36 0.47 0.51 0.39 0.32 0.34
0.00 0.00 0.03 0.03 0.02 0.02 0.01 0.01 0.00 0.00 0.00 0.00 0.00 0.00 0.01 0.00 0.01 0.01 0.01 0.00 0.00 0.01 0.01 0.01 0.02 0.07 0.28 0.42 0.51 0.48 0.45 0.44
0.00 0.00 0.02 0.04 0.03 0.04 0.04 0.03 0.01 0.00 0.00 0.00 0.00 0.00 0.00 0.00 0.01 0.00 0.00 0.01 0.01 0.01 0.00 0.00 0.01 0.06 0.10 0.27 0.43 0.51 0.51 0.57
0.00 0.00 0.00 0.01 0.04 0.05 0.05 0.09 0.06 0.03 0.00 0.00 0.00 0.00 0.01 0.00 0.00 0.00 0.01 0.01 0.01 0.01 0.01 0.00 0.00 0.02 0.04 0.08 0.29 0.45 0.53 0.57
0.00 0.00 0.00 0.01 0.08 0.12 0.12 0.09 0.08 0.03 0.02 0.01 0.00 0.00 0.00 0.00 0.00 0.00 0.01 0.01 0.02 0.02 0.02 0.01 0.01 0.04 0.05 0.07 0.15 0.25 0.40 0.51
0.00 0.00 0.00 0.00 0.03 0.03 0.04 0.01 0.02 0.04 0.04 0.09 0.02 0.00 0.00 0.00 0.00 0.00 0.01 0.01 0.02 0.02 0.03 0.03 0.03 0.05 0.08 0.14 0.28 0.20 0.20 0.35
0.00 0.00 0.00 0.00 0.00 0.02 0.06 0.09 0.11 0.22 0.20 0.20 0.13 0.02 0.01 0.00 0.01 0.01 0.01 0.02 0.01 0.04 0.05 0.03 0.03 0.03 0.03 0.15 0.31 0.41 0.41 0.32
0.00 0.00 0.00 0.00 0.00 0.01 0.05 0.15 0.20 0.36 0.31 0.25 0.23 0.21 0.16 0.09 0.03 0.03 0.01 0.01 0.03 0.04 0.07 0.07 0.04 0.05 0.02 0.12 0.17 0.19 0.19 0.30
0.00 0.00 0.00 0.00 0.00 0.01 0.02 0.01 0.00 0.01 0.04 0.17 0.26 0.50 0.61 0.50 0.28 0.22 0.14 0.05 0.05 0.07 0.09 0.14 0.14 0.08 0.08 0.13 0.06 0.05 0.08 0.19
0.00 0.00 0.00 0.00 0.00 0.01 0.03 0.03 0.04 0.06 0.04 0.05 0.08 0.21 0.24 0.45 0.47 0.38 0.23 0.11 0.08 0.11 0.08 0.09 0.11 0.11 0.07 0.12 0.13 0.09 0.16 0.18
0.00 0.00 0.00 0.00 0.01 0.03 0.04 0.03 0.05 0.05 0.02 0.03 0.03 0.03 0.06 0.06 0.08 0.12 0.11 0.07 0.07 0.09 0.07 0.07 0.08 0.11 0.15 0.12 0.12 0.12 0.14 0.19
0.02 0.03 0.01 0.01 0.01 0.03 0.06 0.08 0.06 0.06 0.04 0.03 0.05 0.03 0.03 0.02 0.02 0.04 0.04 0.03 0.04 0.05 0.05 0.07 0.08 0.13 0.17 0.14 0.13 0.12 0.16 0.23
0.10 0.09 0.14 0.14 0.16 0.18 0.19 0.19 0.18 0.16 0.14 0.14 0.07 0.02 0.03 0.05 0.02 0.04 0.06 0.09 0.11 0.08 0.06 0.07 0.11 0.18 0.17 0.16 0.11 0.15 0.20 0.18

GFSFLT2_prec_precacc12_105.txt.gz
Total_Precipitation_Accumulation
0.00 0.00 0.00 0.00 0.00 0.00 0.00 0.00 0.00 0.00 0.00 0.00 0.00 0.00 0.00 0.00 0.00 0.05 0.08 0.05 0.03 0.04 0.05 0.01 0.02 0.06 0.14 0.13 0.09 0.05 0.03 0.04
0.00 0.00 0.00 0.00 0.00 0.00 0.00 0.00 0.00 0.00 0.00 0.00 0.00 0.00 0.00 0.00 0.00 0.01 0.06 0.04 0.02 0.08 0.08 0.05 0.11 0.12 0.15 0.10 0.17 0.25 0.20 0.16
0.00 0.00 0.00 0.00 0.00 0.00 0.00 0.00 0.00 0.00 0.00 0.00 0.00 0.00 0.00 0.00 0.00 0.00 0.06 0.04 0.04 0.12 0.11 0.05 0.03 0.12 0.19 0.13 0.28 0.29 0.28 0.24
0.00 0.00 0.00 0.00 0.00 0.00 0.00 0.00 0.00 0.00 0.00 0.00 0.00 0.00 0.00 0.00 0.00 0.00 0.02 0.01 0.02 0.16 0.12 0.08 0.19 0.09 0.07 0.10 0.15 0.23 0.40 0.32
0.00 0.00 0.00 0.00 0.00 0.00 0.00 0.00 0.00 0.00 0.00 0.00 0.00 0.00 0.00 0.00 0.00 0.00 0.01 0.01 0.02 0.04 0.07 0.08 0.07 0.06 0.10 0.05 0.14 0.23 0.33 0.25
0.01 0.00 0.00 0.01 0.00 0.00 0.00 0.00 0.00 0.00 0.00 0.00 0.00 0.00 0.00 0.00 0.00 0.00 0.01 0.01 0.01 0.02 0.05 0.05 0.04 0.05 0.10 0.15 0.21 0.23 0.20 0.26
0.00 0.01 0.01 0.00 0.01 0.00 0.00 0.00 0.00 0.00 0.00 0.00 0.00 0.00 0.00 0.00 0.00 0.00 0.00 0.01 0.01 0.03 0.04 0.03 0.06 0.08 0.12 0.17 0.25 0.24 0.26 0.22
0.00 0.01 0.02 0.04 0.02 0.00 0.00 0.00 0.00 0.00 0.00 0.00 0.00 0.00 0.00 0.00 0.01 0.00 0.00 0.00 0.01 0.02 0.03 0.04 0.07 0.09 0.14 0.29 0.41 0.35 0.33 0.32
0.00 0.00 0.03 0.02 0.02 0.01 0.01 0.01 0.00 0.00 0.00 0.00 0.00 0.00 0.01 0.00 0.01 0.01 0.01 0.00 0.01 0.02 0.02 0.04 0.06 0.06 0.07 0.26 0.44 0.46 0.44 0.40
0.00 0.00 0.01 0.03 0.02 0.03 0.03 0.03 0.01 0.00 0.00 0.00 0.00 0.00 0.00 0.00 0.01 0.00 0.01 0.01 0.01 0.01 0.02 0.02 0.02 0.05 0.05 0.17 0.38 0.48 0.50 0.54
0.00 0.00 0.00 0.00 0.02 0.04 0.04 0.08 0.06 0.03 0.00 0.00 0.00 0.00 0.01 0.00 0.00 0.00 0.01 0.01 0.01 0.01 0.01 0.01 0.01 0.02 0.03 0.05 0.26 0.42 0.50 0.55
0.00 0.00 0.00 0.00 0.04 0.07 0.04 0.07 0.07 0.03 0.02 0.01 0.00 0.00 0.00 0.01 0.00 0.00 0.01 0.02 0.02 0.02 0.01 0.00 0.00 0.01 0.02 0.03 0.07 0.23 0.37 0.48
0.00 0.00 0.00 0.00 0.01 0.01 0.02 0.01 0.01 0.02 0.03 0.09 0.02 0.00 0.01 0.01 0.00 0.00 0.01 0.01 0.01 0.01 0.01 0.01 0.01 0.01 0.03 0.04 0.05 0.09 0.17 0.33
0.00 0.00 0.00 0.00 0.00 0.00 0.00 0.00 0.01 0.14 0.18 0.20 0.13 0.03 0.01 0.01 0.01 0.01 0.01 0.02 0.01 0.02 0.02 0.02 0.03 0.02 0.02 0.02 0.04 0.11 0.22 0.29
0.00 0.00 0.00 0.00 0.00 0.00 0.01 0.06 0.14 0.24 0.29 0.25 0.23 0.23 0.17 0.09 0.03 0.02 0.01 0.02 0.02 0.03 0.04 0.05 0.03 0.04 0.02 0.02 0.01 0.04 0.10 0.26
0.00 0.00 0.00 0.00 0.00 0.00 0.00 0.00 0.00 0.01 0.04 0.17 0.26 0.52 0.64 0.50 0.27 0.20 0.13 0.06 0.05 0.03 0.05 0.09 0.12 0.08 0.07 0.04 0.03 0.04 0.04 0.09
0.00 0.00 0.00 0.00 0.00 0.00 0.00 0.00 0.00 0.00 0.01 0.05 0.09 0.22 0.25 0.45 0.48 0.37 0.32 0.20 0.14 0.12 0.07 0.08 0.09 0.10 0.07 0.05 0.04 0.04 0.07 0.07
0.00 0.00 0.00 0.00 0.00 0.00 0.01 0.01 0.00 0.01 0.00 0.03 0.06 0.06 0.08 0.08 0.19 0.14 0.16 0.28 0.27 0.29 0.25 0.13 0.07 0.08 0.10 0.10 0.07 0.05 0.05 0.13
0.00 0.01 0.00 0.00 0.01 0.01 0.01 0.01 0.02 0.02 0.02 0.05 0.10 0.07 0.07 0.03 0.06 0.05 0.04 0.05 0.04 0.05 0.10 0.15 0.09 0.07 0.07 0.09 0.11 0.10 0.13 0.17
0.02 0.04 0.03 0.04 0.05 0.05 0.09 0.14 0.16 0.15 0.13 0.19 0.13 0.03 0.04 0.08 0.07 0.09 0.11 0.12 0.10 0.08 0.06 0.07 0.07 0.07 0.06 0.05 0.07 0.11 0.16 0.18

GFSFLT2_prec_precacc12_108.txt.gz
Total_Precipitation_Accumulation
0.00 0.00 0.00 0.00 0.00 0.00 0.00 0.00 0.00 0.00 0.00 0.00 0.00 0.00 0.00 0.00 0.00 0.04 0.07 0.05 0.04 0.05 0.07 0.02 0.00 0.00 0.03 0.05 0.01 0.00 0.01 0.03
0.00 0.00 0.00 0.00 0.00 0.00 0.00 0.00 0.00 0.00 0.00 0.00 0.00 0.00 0.00 0.00 0.00 0.01 0.06 0.05 0.02 0.09 0.10 0.05 0.00 0.00 0.00 0.02 0.07 0.09 0.05 0.05
0.00 0.01 0.00 0.00 0.00 0.00 0.00 0.00 0.00 0.00 0.00 0.00 0.00 0.00 0.00 0.00 0.00 0.00 0.06 0.04 0.04 0.11 0.11 0.06 0.02 0.09 0.12 0.08 0.15 0.09 0.11 0.10
0.00 0.01 0.02 0.01 0.00 0.00 0.00 0.00 0.00 0.00 0.00 0.00 0.00 0.00 0.00 0.00 0.00 0.00 0.02 0.01 0.02 0.11 0.09 0.08 0.19 0.10 0.07 0.06 0.04 0.04 0.18 0.19
0.00 0.00 0.01 0.02 0.01 0.01 0.00 0.00 0.00 0.00 0.00 0.00 0.00 0.00 0.00 0.00 0.00 0.01 0.01 0.00 0.02 0.04 0.07 0.08 0.07 0.06 0.12 0.02 0.03 0.08 0.13 0.07
0.01 0.01 0.02 0.03 0.05 0.01 0.00 0.02 0.01 0.00 0.00 0.00 0.00 0.00 0.00 0.00 0.00 0.00 0.01 0.01 0.01 0.02 0.06 0.05 0.05 0.06 0.11 0.14 0.12 0.09 0.04 0.07
0.00 0.04 0.05 0.07 0.15 0.13 0.06 0.03 0.04 0.00 0.03 0.00 0.00 0.00 0.00 0.00 0.00 0.00 0.00 0.01 0.01 0.03 0.04 0.04 0.06 0.08 0.10 0.09 0.09 0.06 0.13 0.19
0.00 0.00 0.01 0.03 0.05 0.11 0.10 0.09 0.08 0.02 0.01 0.01 0.00 0.00 0.00 0.00 0.00 0.00 0.00 0.00 0.01 0.02 0.03 0.06 0.09 0.10 0.09 0.07 0.09 0.11 0.18 0.19
0.00 0.00 0.00 0.00 0.00 0.02 0.04 0.05 0.06 0.04 0.01 0.00 0.00 0.01 0.00 0.00 0.00 0.00 0.00 0.00 0.01 0.02 0.03 0.07 0.07 0.07 0.04 0.05 0.07 0.16 0.28 0.25
0.00 0.00 0.00 0.00 0.00 0.01 0.00 0.01 0.01 0.01 0.00 0.00 0.00 0.00 0.00 0.00 0.00 0.00 0.00 0.01 0.02 0.01 0.02 0.03 0.03 0.05 0.05 0.05 0.08 0.21 0.34 0.40
0.00 0.00 0.00 0.00 0.00 0.00 0.00 0.05 0.02 0.00 0.00 0.00 0.01 0.00 0.00 0.00 0.00 0.00 0.00 0.01 0.02 0.01 0.01 0.01 0.02 0.03 0.04 0.03 0.08 0.16 0.31 0.44
0.00 0.00 0.00 0.00 0.00 0.01 0.01 0.02 0.02 0.00 0.00 0.00 0.02 0.05 0.00 0.01 0.00 0.00 0.00 0.01 0.02 0.02 0.01 0.01 0.01 0.02 0.02 0.02 0.05 0.13 0.22 0.37
0.00 0.00 0.00 0.00 0.00 0.00 0.00 0.00 0.01 0.01 0.01 0.05 0.02 0.08 0.04 0.01 0.01 0.01 0.01 0.01 0.01 0.01 0.01 0.01 0.02 0.02 0.03 0.03 0.03 0.07 0.15 0.24
0.00 0.00 0.00 0.00 0.00 0.00 0.00 0.00 0.00 0.07 0.05 0.03 0.05 0.06 0.15 0.08 0.06 0.05 0.06 0.04 0.01 0.02 0.01 0.01 0.02 0.02 0.02 0.02 0.02 0.05 0.08 0.16
0.00 0.00 0.00 0.00 0.00 0.00 0.00 0.02 0.05 0.08 0.02 0.01 0.08 0.19 0.20 0.13 0.06 0.10 0.27 0.44 0.35 0.08 0.02 0.02 0.01 0.02 0.02 0.02 0.01 0.01 0.04 0.06
0.00 0.00 0.00 0.00 0.00 0.00 0.00 0.00 0.00 0.00 0.00 0.02 0.09 0.42 0.64 0.54 0.31 0.26 0.27 0.24 0.22 0.21 0.10 0.05 0.04 0.03 0.05 0.04 0.02 0.03 0.02 0.03
0.00 0.00 0.00 0.00 0.00 0.00 0.00 0.00 0.00 0.00 0.00 0.02 0.04 0.20 0.24 0.46 0.49 0.38 0.36 0.28 0.22 0.20 0.10 0.05 0.06 0.05 0.05 0.04 0.04 0.04 0.05 0.03
0.00 0.00 0.00 0.00 0.00 0.00 0.01 0.01 0.00 0.01 0.00 0.01 0.05 0.09 0.14 0.15 0.27 0.18 0.18 0.31 0.31 0.42 0.44 0.24 0.14 0.11 0.08 0.09 0.07 0.04 0.03 0.04
0.00 0.00 0.00 0.00 0.01 0.01 0.01 0.01 0.01 0.01 0.02 0.05 0.13 0.25 0.30 0.29 0.21 0.11 0.07 0.06 0.08 0.10 0.24 0.35 0.27 0.13 0.08 0.08 0.09 0.09 0.10 0.07
0.01 0.01 0.01 0.02 0.04 0.05 0.05 0.05 0.05 0.04 0.06 0.15 0.14 0.10 0.11 0.29 0.31 0.18 0.14 0.14 0.22 0.29 0.29 0.22 0.16 0.28 0.17 0.11 0.09 0.06 0.11 0.10

GFSFLT2_prec_precacc12_114.txt.gz
Total_Precipitation_Accumulation
0.00 0.00 0.00 0.00 0.00 0.00 0.00 0.00 0.00 0.00 0.00 0.00 0.00 0.00 0.00 0.00 0.00 0.00 0.02 0.02 0.03 0.04 0.04 0.01 0.00 0.00 0.00 0.00 0.00 0.00 0.04 0.16
0.00 0.00 0.00 0.00 0.00 0.00 0.00 0.00 0.00 0.00 0.00 0.00 0.00 0.00 0.00 0.00 0.00 0.00 0.01 0.01 0.02 0.04 0.05 0.03 0.00 0.00 0.00 0.00 0.03 0.05 0.01 0.07
0.00 0.01 0.00 0.00 0.00 0.00 0.00 0.00 0.00 0.00 0.00 0.00 0.00 0.00 0.00 0.00 0.00 0.00 0.02 0.01 0.02 0.04 0.05 0.03 0.01 0.00 0.02 0.03 0.10 0.02 0.00 0.03
0.00 0.01 0.02 0.01 0.00 0.00 0.00 0.00 0.00 0.00 0.00 0.00 0.00 0.00 0.00 0.00 0.00 0.00 0.00 0.00 0.00 0.02 0.02 0.03 0.05 0.02 0.03 0.01 0.02 0.01 0.12 0.13
0.01 0.03 0.02 0.03 0.02 0.01 0.00 0.00 0.00 0.00 0.00 0.00 0.00 0.00 0.00 0.00 0.00 0.00 0.00 0.00 0.00 0.00 0.00 0.01 0.01 0.01 0.07 0.02 0.00 0.05 0.09 0.03
0.06 0.11 0.07 0.03 0.06 0.02 0.02 0.02 0.00 0.00 0.00 0.00 0.00 0.00 0.00 0.00 0.00 0.00 0.00 0.01 0.00 0.00 0.00 0.00 0.01 0.01 0.05 0.09 0.08 0.08 0.02 0.05
0.04 0.07 0.11 0.13 0.19 0.19 0.14 0.10 0.09 0.01 0.04 0.01 0.00 0.00 0.00 0.00 0.00 0.00 0.00 0.00 0.01 0.01 0.01 0.01 0.03 0.04 0.06 0.07 0.07 0.06 0.09 0.14
0.00 0.00 0.00 0.01 0.06 0.16 0.20 0.27 0.32 0.15 0.17 0.10 0.02 0.00 0.00 0.00 0.00 0.00 0.00 0.00 0.01 0.01 0.01 0.03 0.05 0.06 0.06 0.05 0.06 0.07 0.09 0.11
0.00 0.00 0.00 0.00 0.00 0.03 0.10 0.14 0.23 0.20 0.22 0.33 0.30 0.16 0.05 0.03 0.00 0.00 0.00 0.00 0.01 0.01 0.02 0.06 0.05 0.04 0.02 0.04 0.04 0.04 0.05 0.06
0.00 0.00 0.00 0.00 0.00 0.00 0.00 0.04 0.07 0.14 0.13 0.24 0.28 0.26 0.27 0.36 0.23 0.08 0.04 0.01 0.02 0.01 0.02 0.03 0.03 0.03 0.03 0.02 0.04 0.04 0.05 0.05
0.00 0.00 0.00 0.00 0.00 0.00 0.00 0.00 0.00 0.02 0.04 0.10 0.30 0.17 0.22 0.25 0.27 0.28 0.21 0.13 0.03 0.00 0.01 0.02 0.01 0.02 0.03 0.02 0.03 0.05 0.05 0.05
0.00 0.00 0.00 0.00 0.00 0.00 0.00 0.00 0.00 0.00 0.00 0.01 0.05 0.16 0.07 0.13 0.13 0.10 0.30 0.34 0.22 0.14 0.04 0.02 0.01 0.01 0.02 0.02 0.02 0.05 0.05 0.04
0.00 0.00 0.00 0.00 0.00 0.00 0.00 0.00 0.00 0.00 0.00 0.00 0.01 0.18 0.13 0.01 0.02 0.05 0.13 0.16 0.10 0.23 0.33 0.23 0.13 0.07 0.09 0.08 0.02 0.04 0.06 0.03
0.00 0.00 0.00 0.00 0.00 0.00 0.00 0.00 0.00 0.00 0.00 0.00 0.00 0.05 0.16 0.10 0.07 0.07 0.11 0.22 0.33 0.30 0.54 0.60 0.39 0.32 0.28 0.13 0.06 0.03 0.02 0.03
0.00 0.00 0.00 0.00 0.00 0.00 0.00 0.00 0.00 0.00 0.00 0.00 0.00 0.02 0.05 0.08 0.08 0.15 0.35 0.75 0.91 1.01 1.11 1.12 0.90 0.78 0.68 0.60 0.30 0.10 0.05 0.01
0.00 0.00 0.00 0.00 0.00 0.00 0.00 0.00 0.00 0.00 0.00 0.00 0.00 0.02 0.08 0.08 0.09 0.18 0.23 0.39 0.48 0.62 0.77 0.88 1.04 1.14 1.27 1.29 0.89 0.31 0.10 0.02
0.00 0.00 0.00 0.00 0.00 0.00 0.00 0.00 0.00 0.00 0.00 0.00 0.01 0.01 0.04 0.09 0.13 0.13 0.26 0.32 0.26 0.23 0.18 0.15 0.13 0.23 0.22 0.20 0.32 0.23 0.10 0.04
0.00 0.00 0.00 0.00 0.00 0.00 0.00 0.00 0.00 0.00 0.00 0.00 0.03 0.06 0.09 0.16 0.36 0.25 0.27 0.43 0.39 0.46 0.54 0.38 0.23 0.12 0.09 0.04 0.03 0.03 0.03 0.04
0.00 0.00 0.00 0.00 0.00 0.00 0.00 0.00 0.00 0.00 0.00 0.02 0.09 0.22 0.28 0.30 0.42 0.35 0.27 0.33 0.33 0.32 0.48 0.73 0.78 0.40 0.24 0.17 0.11 0.08 0.09 0.11
0.00 0.00 0.00 0.00 0.00 0.00 0.00 0.00 0.01 0.01 0.01 0.05 0.07 0.07 0.08 0.26 0.61 0.57 0.42 0.33 0.35 0.51 0.58 0.61 0.81 0.94 0.42 0.24 0.16 0.11 0.15 0.12